QPF
0.18 0.15 0.10 0.08 0.07 0.07 0.06 0.05 0.03 0.01 0.00 0.00 0.00 0.00 0.00 0.00 0.00 0.00 0.00 0.00 0.00 0.00 0.00 0.00 0.00 0.00 0.00 0.00 0.00 0.00 0.00 0.00 0.00 0.00 0.00 0.00 0.00 0.00 0.00 0.00 0.00 0.00 0.00
0.13 0.13 0.12 0.09 0.07 0.05 0.04 0.03 0.01 0.00 0.00 0.00 0.00 0.00 0.00 0.00 0.00 0.00 0.00 0.00 0.00 0.00 0.00 0.00 0.00 0.00 0.00 0.00 0.00 0.00 0.00 0.00 0.00 0.00 0.00 0.00 0.00 0.00 0.00 0.00 0.00 0.00 0.00
0.15 0.12 0.09 0.07 0.04 0.02 0.01 0.00 0.00 0.00 0.00 0.00 0.00 0.00 0.00 0.00 0.00 0.00 0.00 0.00 0.00 0.00 0.00 0.00 0.00 0.00 0.00 0.00 0.00 0.00 0.00 0.00 0.00 0.00 0.00 0.00 0.00 0.00 0.00 0.00 0.00 0.00 0.00
0.01 0.01 0.01 0.01 0.00 0.00 0.00 0.00 0.00 0.00 0.00 0.00 0.00 0.00 0.00 0.00 0.00 0.00 0.00 0.00 0.00 0.00 0.00 0.00 0.00 0.00 0.00 0.00 0.00 0.00 0.00 0.00 0.00 0.00 0.00 0.00 0.00 0.00 0.00 0.00 0.00 0.00 0.00
0.00 0.00 0.00 0.00 0.00 0.00 0.00 0.00 0.00 0.00 0.00 0.00 0.00 0.00 0.00 0.00 0.00 0.00 0.00 0.00 0.00 0.00 0.00 0.00 0.00 0.00 0.00 0.00 0.00 0.00 0.00 0.00 0.00 0.00 0.00 0.00 0.00 0.00 0.00 0.00 0.00 0.00 0.00
0.00 0.00 0.00 0.00 0.00 0.00 0.00 0.00 0.00 0.00 0.00 0.00 0.00 0.00 0.00 0.00 0.00 0.00 0.00 0.00 0.00 0.00 0.00 0.00 0.00 0.00 0.00 0.00 0.00 0.00 0.00 0.01 0.01 0.01 0.00 0.00 0.00 0.00 0.00 0.00 0.00 0.00 0.00
0.00 0.00 0.00 0.00 0.00 0.00 0.00 0.00 0.00 0.00 0.00 0.00 0.00 0.00 0.00 0.00 0.00 0.00 0.00 0.00 0.00 0.00 0.00 0.00 0.00 0.00 0.00 0.00 0.00 0.00 0.00 0.00 0.01 0.01 0.01 0.00 0.00 0.00 0.00 0.00 0.00 0.00 0.00
0.00 0.00 0.00 0.00 0.00 0.00 0.00 0.00 0.00 0.00 0.00 0.00 0.00 0.00 0.00 0.00 0.00 0.00 0.00 0.00 0.00 0.00 0.00 0.00 0.00 0.00 0.00 0.00 0.00 0.00 0.00 0.00 0.00 0.00 0.00 0.00 0.00 0.00 0.00 0.00 0.00 0.00 0.00
0.00 0.00 0.00 0.00 0.00 0.00 0.00 0.00 0.00 0.00 0.00 0.00 0.00 0.00 0.00 0.00 0.00 0.00 0.00 0.00 0.00 0.00 0.00 0.00 0.00 0.00 0.00 0.00 0.00 0.00 0.00 0.00 0.00 0.00 0.00 0.00 0.00 0.00 0.00 0.00 0.00 0.00 0.00
0.00 0.00 0.00 0.00 0.00 0.00 0.00 0.00 0.00 0.00 0.00 0.00 0.00 0.00 0.00 0.00 0.00 0.00 0.00 0.00 0.00 0.00 0.00 0.00 0.00 0.00 0.00 0.00 0.00 0.00 0.00 0.00 0.00 0.00 0.00 0.00 0.00 0.00 0.00 0.00 0.00 0.00 0.00
0.00 0.00 0.00 0.00 0.00 0.00 0.00 0.00 0.00 0.00 0.00 0.00 0.00 0.00 0.00 0.00 0.00 0.00 0.00 0.00 0.00 0.00 0.00 0.00 0.00 0.00 0.00 0.00 0.00 0.00 0.00 0.00 0.00 0.01 0.01 0.01 0.01 0.01 0.01 0.00 0.00 0.01 0.01
0.00 0.00 0.00 0.00 0.00 0.00 0.00 0.00 0.00 0.00 0.00 0.00 0.00 0.00 0.00 0.00 0.00 0.00 0.00 0.00 0.00 0.00 0.00 0.00 0.00 0.00 0.00 0.00 0.00 0.00 0.00 0.00 0.00 0.00 0.00 0.00 0.00 0.00 0.00 0.00 0.00 0.00 0.00
0.00 0.00 0.00 0.00 0.00 0.00 0.00 0.00 0.00 0.00 0.00 0.00 0.00 0.00 0.00 0.00 0.00 0.00 0.00 0.00 0.00 0.00 0.00 0.00 0.00 0.00 0.00 0.00 0.00 0.00 0.00 0.00 0.00 0.00 0.00 0.00 0.00 0.00 0.00 0.00 0.00 0.00 0.00
0.00 0.00 0.00 0.00 0.00 0.00 0.00 0.00 0.00 0.00 0.00 0.00 0.00 0.00 0.00 0.00 0.00 0.00 0.00 0.00 0.00 0.00 0.00 0.00 0.00 0.00 0.00 0.00 0.00 0.00 0.00 0.00 0.00 0.00 0.00 0.00 0.00 0.00 0.00 0.00 0.00 0.00 0.00
0.00 0.00 0.00 0.00 0.00 0.00 0.00 0.00 0.00 0.00 0.00 0.00 0.00 0.00 0.00 0.00 0.00 0.00 0.00 0.00 0.00 0.00 0.00 0.00 0.00 0.00 0.00 0.00 0.00 0.00 0.00 0.00 0.00 0.00 0.00 0.00 0.00 0.00 0.00 0.00 0.00 0.00 0.00
0.00 0.00 0.00 0.00 0.00 0.00 0.00 0.00 0.00 0.00 0.00 0.00 0.00 0.00 0.00 0.00 0.00 0.00 0.00 0.00 0.00 0.00 0.00 0.00 0.00 0.00 0.00 0.00 0.00 0.00 0.00 0.00 0.00 0.01 0.01 0.01 0.00 0.00 0.00 0.00 0.00 0.00 0.00
0.00 0.00 0.00 0.00 0.00 0.00 0.00 0.00 0.00 0.00 0.00 0.00 0.00 0.00 0.00 0.00 0.00 0.00 0.00 0.00 0.00 0.00 0.00 0.00 0.00 0.00 0.00 0.00 0.00 0.00 0.00 0.00 0.00 0.00 0.00 0.01 0.01 0.01 0.00 0.00 0.00 0.01 0.01
0.00 0.00 0.00 0.00 0.00 0.00 0.01 0.00 0.00 0.00 0.00 0.00 0.00 0.00 0.00 0.00 0.00 0.00 0.00 0.00 0.00 0.00 0.00 0.00 0.00 0.00 0.00 0.00 0.00 0.00 0.00 0.00 0.00 0.00 0.00 0.01 0.01 0.01 0.02 0.02 0.02 0.01 0.00
0.00 0.00 0.00 0.00 0.00 0.00 0.00 0.00 0.00 0.00 0.01 0.00 0.00 0.00 0.00 0.00 0.00 0.00 0.00 0.00 0.00 0.00 0.00 0.00 0.00 0.00 0.00 0.00 0.00 0.00 0.00 0.00 0.00 0.00 0.00 0.01 0.01 0.02 0.05 0.07 0.06 0.04 0.01
0.00 0.00 0.00 0.00 0.00 0.00 0.00 0.00 0.00 0.00 0.00 0.00 0.00 0.00 0.00 0.00 0.00 0.00 0.00 0.00 0.00 0.00 0.00 0.00 0.00 0.00 0.00 0.00 0.00 0.00 0.00 0.00 0.00 0.00 0.00 0.00 0.00 0.02 0.05 0.09 0.10 0.11 0.04
0.00 0.00 0.00 0.00 0.00 0.00 0.00 0.00 0.00 0.00 0.00 0.00 0.00 0.00 0.00 0.00 0.00 0.00 0.00 0.00 0.00 0.00 0.00 0.00 0.00 0.00 0.00 0.00 0.00 0.00 0.00 0.00 0.00 0.00 0.00 0.00 0.00 0.00 0.00 0.03 0.06 0.08 0.09
0.00 0.00 0.00 0.00 0.00 0.00 0.00 0.00 0.00 0.00 0.00 0.00 0.00 0.00 0.00 0.00 0.00 0.00 0.00 0.00 0.00 0.00 0.00 0.00 0.00 0.00 0.00 0.00 0.00 0.00 0.00 0.00 0.00 0.00 0.00 0.00 0.00 0.00 0.00 0.00 0.01 0.00 0.01
0.00 0.00 0.00 0.00 0.00 0.00 0.00 0.00 0.00 0.00 0.00 0.00 0.00 0.00 0.00 0.00 0.00 0.00 0.00 0.00 0.00 0.00 0.00 0.00 0.00 0.00 0.00 0.00 0.00 0.00 0.00 0.00 0.00 0.00 0.00 0.00 0.00 0.00 0.00 0.00 0.00 0.00 0.00
0.00 0.00 0.00 0.00 0.00 0.00 0.00 0.00 0.00 0.00 0.00 0.00 0.00 0.00 0.00 0.00 0.00 0.00 0.00 0.00 0.00 0.00 0.00 0.00 0.00 0.00 0.00 0.00 0.00 0.00 0.00 0.00 0.00 0.00 0.00 0.00 0.00 0.00 0.00 0.00 0.00 0.00 0.00
0.00 0.00 0.00 0.00 0.00 0.00 0.00 0.00 0.00 0.00 0.00 0.00 0.00 0.00 0.00 0.00 0.00 0.00 0.00 0.00 0.00 0.00 0.00 0.00 0.00 0.00 0.00 0.00 0.00 0.00 0.00 0.00 0.00 0.00 0.00 0.00 0.00 0.00 0.00 0.00 0.00 0.00 0.00
0.00 0.00 0.00 0.00 0.00 0.00 0.00 0.00 0.00 0.00 0.00 0.00 0.00 0.00 0.00 0.00 0.00 0.00 0.00 0.00 0.00 0.00 0.00 0.00 0.00 0.00 0.00 0.00 0.00 0.00 0.00 0.00 0.00 0.00 0.00 0.00 0.00 0.00 0.00 0.00 0.00 0.00 0.00
MSLP
1019.81 1020.53 1020.81 1021.02 1021.05 1021.16 1021.26 1021.01 1021.17 1021.19 1021.18 1021.43 1021.21 1020.71 1021.54 1021.27 1021.45 1021.40 1021.63 1021.57 1021.38 1021.28 1021.25 1020.93 1020.62 1020.19 1019.78 1019.40 1018.87 1018.31 1017.76 1017.19 1016.22 1013.91 1013.52 1012.92 1012.33 1011.92 1011.43 1011.05 1010.59 1010.20 1009.82
1020.45 1020.80 1020.91 1021.05 1021.46 1021.84 1021.81 1021.42 1021.07 1021.43 1021.55 1021.53 1021.42 1021.37 1021.66 1021.55 1021.76 1021.64 1021.55 1021.47 1021.45 1021.35 1021.43 1021.10 1020.81 1020.38 1020.02 1019.52 1018.89 1018.26 1017.65 1017.10 1016.51 1014.99 1013.36 1012.66 1012.27 1011.81 1011.19 1010.67 1010.22 1009.59 1009.29
1020.62 1020.95 1021.17 1021.36 1021.69 1021.93 1022.24 1022.00 1021.78 1021.91 1021.90 1021.53 1021.55 1021.69 1021.72 1021.82 1021.62 1021.68 1021.52 1021.48 1021.36 1021.17 1021.28 1020.92 1020.62 1020.22 1019.70 1019.25 1018.79 1018.20 1017.47 1016.74 1016.15 1015.08 1013.59 1012.70 1011.74 1011.42 1010.77 1010.34 1009.81 1009.28 1008.86
1020.53 1020.92 1021.26 1021.35 1021.45 1021.81 1022.12 1022.03 1022.06 1021.89 1022.17 1022.30 1022.02 1022.03 1021.83 1021.66 1021.43 1021.60 1021.34 1021.12 1021.05 1020.97 1020.83 1020.51 1020.27 1019.89 1019.26 1018.73 1018.16 1017.64 1017.03 1016.39 1015.62 1014.70 1013.50 1012.57 1011.70 1010.76 1010.42 1009.84 1009.23 1008.87 1008.48
1020.75 1020.92 1021.31 1021.43 1021.67 1021.83 1022.25 1022.25 1022.56 1022.35 1022.34 1022.26 1021.93 1021.77 1021.43 1021.21 1021.16 1021.04 1020.92 1020.85 1020.76 1020.34 1020.19 1019.77 1019.39 1019.03 1018.48 1018.01 1017.42 1016.67 1016.34 1015.69 1014.97 1014.22 1013.09 1012.24 1011.22 1010.46 1009.83 1009.30 1008.84 1008.36 1007.87
1021.04 1021.15 1021.27 1021.40 1021.73 1022.01 1022.11 1022.20 1022.25 1022.26 1022.22 1021.99 1021.65 1021.39 1021.02 1020.74 1020.47 1020.13 1020.12 1020.00 1019.87 1019.64 1019.37 1018.93 1018.59 1017.98 1017.28 1016.68 1016.25 1015.93 1015.67 1014.95 1014.28 1013.68 1012.59 1011.55 1010.83 1010.54 1009.86 1009.06 1008.77 1008.42 1007.49
1020.79 1020.94 1021.21 1021.17 1021.42 1021.63 1021.79 1021.91 1021.65 1021.65 1021.82 1021.39 1020.87 1020.88 1020.50 1019.91 1019.51 1019.25 1019.12 1019.15 1018.99 1018.75 1018.50 1017.98 1017.45 1016.84 1016.23 1015.68 1015.08 1014.49 1013.94 1013.66 1013.34 1012.80 1011.66 1010.86 1010.23 1010.06 1009.67 1009.25 1008.68 1008.19 1007.29
1020.86 1020.96 1021.05 1021.21 1021.38 1021.40 1021.57 1021.44 1021.66 1021.61 1021.46 1020.77 1020.28 1020.12 1019.77 1019.15 1018.67 1018.40 1018.23 1018.47 1018.41 1018.16 1017.88 1017.45 1016.84 1016.11 1015.57 1014.85 1013.93 1013.18 1012.66 1012.15 1011.59 1011.06 1010.33 1009.68 1009.31 1009.23 1008.97 1008.58 1008.16 1007.53 1006.99
1020.65 1020.86 1021.02 1021.08 1021.12 1021.16 1021.42 1021.31 1021.07 1020.92 1020.46 1020.13 1019.63 1019.26 1019.13 1018.69 1018.16 1017.99 1017.88 1018.11 1017.88 1017.61 1017.15 1016.57 1016.19 1015.46 1014.62 1014.13 1013.14 1012.09 1011.16 1010.48 1009.85 1009.34 1008.92 1008.54 1008.40 1008.20 1008.17 1007.86 1007.28 1007.16 1006.02
1020.57 1020.62 1020.65 1020.85 1021.05 1021.18 1020.87 1020.64 1020.44 1020.22 1019.93 1019.47 1019.05 1018.81 1018.47 1018.27 1017.64 1017.34 1017.19 1017.69 1017.44 1016.89 1016.35 1015.76 1015.22 1014.49 1013.81 1013.24 1012.38 1011.30 1009.98 1009.18 1008.55 1007.87 1007.58 1007.30 1007.00 1006.68 1006.75 1006.72 1006.62 1006.08 1005.69
1020.23 1020.30 1020.29 1020.33 1020.43 1020.23 1020.13 1020.01 1019.88 1019.63 1019.47 1019.11 1018.86 1018.21 1017.98 1017.54 1017.18 1016.76 1016.77 1016.89 1016.70 1016.43 1015.82 1015.00 1014.15 1013.35 1012.88 1012.10 1011.33 1010.40 1009.37 1008.62 1007.80 1007.20 1006.83 1006.55 1006.19 1005.79 1005.35 1005.27 1005.19 1005.12 1004.68
1020.02 1020.13 1020.08 1020.00 1019.91 1019.80 1019.86 1019.60 1019.43 1019.36 1019.30 1018.72 1018.43 1017.86 1017.21 1016.70 1016.37 1016.15 1016.19 1015.97 1015.89 1016.11 1015.58 1014.97 1014.22 1013.39 1012.35 1011.12 1010.00 1008.92 1008.12 1007.45 1007.02 1006.46 1006.07 1005.81 1005.31 1004.78 1004.42 1004.15 1003.94 1003.56 1003.14
1019.99 1020.01 1019.80 1019.64 1019.49 1019.45 1019.53 1019.44 1019.17 1018.81 1018.75 1018.37 1018.02 1017.47 1016.73 1015.98 1015.70 1015.57 1015.57 1015.28 1015.33 1015.56 1015.28 1014.84 1014.04 1013.02 1011.88 1010.62 1009.31 1007.93 1006.82 1006.47 1006.18 1005.74 1005.18 1004.64 1004.21 1003.61 1003.25 1003.04 1002.81 1002.54 1002.08
1019.75 1019.70 1019.52 1019.56 1019.26 1018.98 1018.96 1018.81 1018.81 1018.29 1017.97 1017.72 1017.32 1016.78 1016.13 1015.59 1015.17 1015.13 1015.05 1014.86 1015.00 1014.95 1014.85 1014.36 1013.68 1012.85 1011.74 1011.00 1009.50 1008.04 1006.79 1005.87 1005.38 1004.86 1004.34 1003.73 1003.19 1002.75 1002.39 1002.10 1001.72 1001.47 1000.97
1019.32 1019.26 1019.17 1019.05 1018.82 1018.55 1018.25 1018.01 1017.88 1017.20 1017.00 1016.72 1016.21 1015.83 1015.55 1015.08 1014.31 1014.39 1014.37 1014.51 1014.35 1014.37 1014.46 1014.16 1013.44 1012.65 1011.84 1010.85 1009.69 1008.43 1007.15 1006.02 1005.02 1003.88 1003.15 1002.69 1002.37 1001.96 1001.47 1001.07 1000.77 1000.39 999.96
1018.84 1018.80 1018.64 1018.45 1018.17 1017.91 1017.65 1017.07 1016.37 1016.06 1015.42 1015.38 1015.11 1015.06 1014.44 1014.28 1013.76 1013.69 1013.75 1013.69 1013.69 1014.04 1014.50 1014.20 1013.37 1012.66 1011.95 1010.91 1009.76 1008.63 1007.39 1006.22 1005.11 1003.93 1002.63 1002.03 1001.45 1000.89 1000.27 999.82 999.57 999.22 998.89
1018.32 1018.17 1017.93 1017.71 1017.52 1017.35 1017.03 1016.87 1016.38 1014.69 1014.50 1014.32 1013.78 1013.35 1013.49 1013.13 1012.82 1012.83 1012.91 1013.02 1013.09 1013.73 1014.10 1013.70 1012.99 1012.23 1011.52 1010.71 1009.78 1008.77 1007.67 1006.39 1005.34 1004.06 1002.93 1002.01 1000.81 999.82 999.09 998.50 998.02 997.75 997.52
1017.61 1017.41 1017.36 1017.04 1016.83 1016.62 1016.33 1016.05 1015.70 1015.29 1014.81 1013.97 1012.72 1012.58 1012.22 1012.17 1011.96 1011.80 1012.06 1012.67 1012.72 1012.90 1013.02 1012.88 1012.19 1011.59 1011.01 1010.25 1009.46 1008.54 1007.71 1006.64 1005.47 1004.33 1003.23 1002.22 1001.06 999.87 998.45 997.41 996.68 996.13 995.91
1016.80 1016.56 1016.24 1016.00 1015.77 1015.54 1015.35 1015.12 1014.80 1014.44 1014.11 1013.56 1012.77 1012.01 1011.37 1011.38 1011.23 1011.55 1011.74 1011.86 1011.89 1011.83 1011.68 1011.52 1011.16 1010.81 1010.23 1009.54 1008.97 1008.44 1007.81 1006.82 1005.81 1004.80 1003.69 1002.52 1001.22 999.87 998.31 996.69 995.14 994.49 994.72
1015.84 1015.44 1015.24 1015.24 1015.00 1014.77 1014.50 1014.27 1013.82 1013.38 1013.06 1012.55 1012.10 1011.43 1011.00 1011.10 1010.85 1010.88 1010.82 1010.72 1010.83 1010.65 1010.56 1010.40 1009.92 1009.76 1009.53 1009.17 1008.62 1008.06 1007.41 1006.69 1005.79 1004.93 1003.87 1002.72 1001.45 1000.26 998.67 996.92 995.45 993.83 993.54
1014.88 1014.48 1014.16 1014.22 1014.05 1013.80 1013.57 1013.22 1012.78 1012.49 1012.04 1011.48 1010.85 1010.13 1009.72 1010.24 1009.86 1009.69 1009.52 1009.40 1009.31 1009.13 1008.96 1008.94 1008.73 1008.47 1008.38 1008.24 1008.11 1007.73 1007.16 1006.55 1005.87 1005.04 1003.99 1002.86 1001.69 1000.57 999.22 997.83 996.16 994.63 993.21
1013.81 1013.57 1013.37 1013.24 1012.95 1012.76 1012.47 1012.17 1011.84 1011.44 1010.86 1010.35 1009.71 1009.07 1008.71 1009.25 1008.80 1008.47 1008.07 1007.88 1007.58 1007.52 1007.46 1007.62 1007.51 1007.27 1007.01 1007.20 1007.23 1007.21 1006.82 1006.31 1005.70 1004.97 1003.99 1002.91 1001.81 1000.81 999.78 998.46 997.16 995.62 994.32
1012.84 1012.69 1012.47 1012.20 1011.94 1011.61 1011.40 1011.04 1010.73 1010.24 1009.71 1009.18 1008.74 1008.38 1008.12 1007.86 1007.51 1007.28 1006.82 1006.33 1006.22 1006.16 1006.08 1006.22 1006.26 1006.16 1005.84 1005.81 1005.88 1005.94 1005.99 1005.46 1005.22 1004.85 1004.09 1002.86 1001.89 1001.05 1000.24 999.34 998.34 997.04 995.95
1011.66 1011.58 1011.44 1011.21 1010.96 1010.66 1010.43 1010.07 1009.56 1009.11 1008.77 1008.32 1007.84 1007.44 1007.23 1007.04 1006.83 1006.24 1005.67 1005.21 1005.03 1004.88 1004.83 1004.84 1004.90 1004.78 1004.73 1004.64 1004.68 1004.59 1004.87 1004.97 1004.93 1004.25 1003.68 1003.00 1001.99 1001.25 1000.58 1000.05 999.22 998.32 997.26
1010.71 1010.53 1010.42 1010.22 1009.99 1009.69 1009.37 1009.04 1008.70 1008.27 1007.93 1007.65 1007.33 1007.01 1006.67 1006.29 1005.77 1005.74 1005.29 1005.13 1005.19 1005.30 1005.29 1005.27 1004.83 1004.51 1004.47 1004.44 1004.42 1004.37 1004.09 1004.11 1004.03 1003.88 1003.22 1002.80 1002.08 1001.37 1000.83 1000.34 999.86 999.19 998.45
1009.73 1009.41 1009.21 1009.01 1008.81 1008.55 1008.33 1008.11 1007.77 1007.41 1007.23 1006.67 1006.50 1006.39 1006.10 1005.83 1005.73 1005.53 1005.25 1005.22 1005.33 1005.10 1004.97 1004.74 1005.00 1004.98 1004.38 1004.01 1004.11 1004.25 1004.10 1003.90 1003.47 1003.22 1003.17 1002.60 1002.11 1001.66 1001.05 1000.51 1000.07 999.61 999.01
Thickness
5717 5713 5712 5711 5712 5713 5711 5712 5708 5706 5706 5704 5706 5712 5703 5705 5702 5702 5697 5697 5698 5697 5696 5699 5701 5704 5706 5706 5710 5715 5720 5724 5730 5757 5759 5763 5767 5769 5772 5776 5782 5786 5789
5707 5705 5705 5704 5700 5698 5689 5693 5699 5697 5695 5694 5694 5696 5692 5692 5688 5689 5687 5687 5687 5687 5686 5687 5689 5693 5694 5697 5701 5705 5710 5714 5716 5731 5750 5757 5758 5761 5766 5770 5774 5780 5784
5701 5696 5694 5692 5688 5686 5683 5681 5682 5682 5682 5684 5682 5680 5679 5678 5678 5676 5677 5678 5678 5679 5676 5678 5680 5682 5686 5688 5691 5696 5700 5706 5709 5717 5733 5744 5753 5755 5759 5763 5767 5772 5776
5693 5689 5685 5683 5681 5677 5672 5671 5669 5670 5668 5665 5667 5666 5667 5667 5668 5665 5667 5668 5668 5667 5667 5669 5669 5671 5674 5677 5681 5684 5689 5693 5699 5705 5716 5727 5738 5747 5747 5751 5756 5762 5766
5680 5677 5672 5669 5667 5663 5658 5656 5653 5653 5652 5652 5654 5655 5657 5658 5658 5657 5657 5657 5657 5659 5657 5659 5660 5662 5665 5667 5671 5676 5678 5682 5687 5692 5702 5711 5723 5731 5736 5742 5744 5751 5757
5665 5662 5658 5655 5650 5646 5644 5643 5641 5641 5640 5642 5644 5646 5647 5648 5650 5651 5651 5650 5649 5649 5649 5651 5650 5653 5656 5659 5663 5664 5665 5669 5674 5677 5688 5697 5705 5709 5717 5724 5726 5730 5739
5655 5651 5646 5645 5641 5639 5635 5632 5633 5632 5630 5632 5635 5635 5637 5639 5642 5643 5644 5642 5641 5640 5639 5639 5642 5643 5643 5645 5650 5655 5658 5657 5658 5661 5673 5681 5686 5690 5694 5699 5707 5711 5725
5641 5638 5635 5632 5630 5628 5625 5624 5620 5619 5618 5623 5627 5626 5628 5632 5635 5636 5635 5632 5630 5628 5626 5625 5626 5629 5628 5630 5638 5642 5645 5646 5647 5650 5658 5667 5670 5672 5675 5680 5687 5697 5704
5631 5626 5622 5619 5617 5614 5610 5609 5609 5610 5611 5613 5616 5619 5619 5621 5623 5623 5622 5619 5618 5616 5615 5614 5612 5613 5617 5616 5622 5628 5634 5635 5637 5641 5645 5650 5650 5654 5656 5660 5668 5671 5692
5619 5617 5613 5608 5603 5599 5599 5599 5599 5601 5602 5604 5607 5608 5610 5611 5614 5615 5613 5606 5605 5605 5605 5603 5602 5601 5602 5603 5607 5614 5623 5625 5630 5636 5637 5640 5642 5644 5642 5642 5645 5654 5664
5610 5607 5603 5598 5593 5590 5590 5589 5589 5591 5592 5594 5596 5601 5601 5604 5605 5605 5601 5596 5594 5593 5593 5594 5596 5597 5595 5598 5599 5605 5611 5614 5619 5624 5627 5627 5628 5630 5633 5632 5632 5634 5643
5603 5598 5594 5587 5580 5577 5576 5577 5579 5579 5579 5585 5587 5591 5595 5598 5598 5597 5593 5590 5587 5582 5582 5580 5580 5581 5584 5591 5596 5602 5606 5609 5610 5615 5617 5616 5617 5620 5620 5621 5622 5625 5632
5593 5588 5583 5576 5571 5566 5564 5566 5569 5572 5571 5575 5577 5582 5587 5591 5591 5590 5586 5586 5583 5576 5572 5568 5568 5570 5575 5582 5589 5597 5604 5605 5605 5606 5607 5606 5606 5606 5605 5604 5605 5609 5616
5587 5583 5578 5571 5567 5563 5560 5560 5561 5565 5566 5569 5572 5576 5581 5584 5586 5582 5581 5581 5575 5571 5566 5564 5562 5561 5564 5564 5573 5583 5591 5597 5598 5599 5598 5599 5595 5590 5588 5586 5588 5591 5600
5585 5581 5576 5572 5568 5564 5562 5563 5562 5567 5569 5570 5573 5575 5575 5579 5585 5580 5578 5574 5572 5567 5562 5556 5556 5555 5555 5558 5562 5568 5576 5582 5588 5595 5595 5591 5584 5576 5572 5570 5572 5577 5586
5584 5579 5577 5575 5572 5568 5566 5568 5572 5573 5577 5575 5576 5575 5580 5578 5579 5578 5573 5570 5567 5559 5551 5548 5549 5547 5548 5552 5556 5561 5565 5571 5576 5583 5588 5581 5574 5568 5565 5563 5563 5568 5577
5584 5582 5580 5579 5575 5572 5569 5567 5567 5579 5578 5577 5578 5580 5576 5580 5579 5576 5572 5567 5562 5552 5546 5544 5543 5545 5546 5547 5550 5554 5556 5560 5563 5570 5573 5569 5569 5572 5568 5566 5569 5573 5580
5588 5586 5583 5582 5579 5577 5574 5572 5573 5573 5573 5577 5586 5582 5583 5581 5579 5576 5571 5562 5558 5552 5547 5544 5544 5543 5543 5545 5546 5549 5549 5551 5553 5558 5561 5560 5561 5565 5571 5574 5578 5583 5590
5592 5590 5589 5586 5583 5582 5580 5578 5576 5576 5574 5577 5581 5585 5585 5580 5577 5570 5565 5562 5558 5554 5550 5547 5546 5544 5544 5544 5543 5541 5539 5542 5545 5547 5549 5552 5556 5562 5571 5582 5592 5595 5595
5595 5594 5592 5589 5586 5584 5582 5581 5580 5581 5579 5580 5581 5583 5583 5577 5576 5572 5566 5563 5558 5555 5552 5549 5549 5545 5542 5540 5539 5538 5537 5538 5540 5541 5541 5545 5550 5555 5566 5579 5589 5602 5604
5599 5598 5597 5592 5589 5589 5587 5586 5586 5583 5584 5585 5587 5588 5586 5580 5579 5574 5569 5564 5561 5558 5556 5553 5551 5548 5543 5540 5536 5535 5533 5532 5532 5534 5537 5539 5543 5548 5557 5566 5576 5587 5601
5604 5602 5601 5598 5597 5594 5592 5590 5589 5587 5589 5589 5590 5591 5587 5578 5579 5578 5573 5567 5565 5562 5558 5552 5548 5546 5544 5539 5536 5531 5530 5528 5528 5529 5532 5536 5540 5543 5547 5555 5560 5570 5582
5608 5606 5604 5602 5600 5599 5596 5594 5592 5591 5592 5592 5592 5590 5587 5583 5581 5578 5576 5575 5569 5564 5560 5553 5548 5544 5542 5538 5534 5531 5527 5527 5523 5522 5526 5532 5534 5536 5538 5543 5548 5553 5559
5614 5611 5608 5605 5603 5600 5598 5597 5596 5593 5591 5590 5590 5589 5585 5581 5578 5578 5576 5575 5571 5567 5561 5554 5549 5545 5541 5537 5533 5531 5525 5521 5517 5517 5520 5524 5527 5527 5530 5532 5536 5540 5548
5617 5614 5610 5608 5605 5603 5600 5597 5594 5592 5589 5585 5583 5580 5578 5575 5572 5566 5564 5560 5554 5547 5543 5538 5537 5535 5531 5527 5524 5521 5520 5518 5516 5514 5514 5516 5521 5525 5524 5526 5526 5531 5535
5621 5619 5615 5611 5606 5603 5599 5595 5592 5588 5582 5582 5578 5572 5568 5564 5557 5552 5549 5542 5535 5533 5529 5526 5519 5517 5518 5517 5512 5508 5507 5507 5508 5508 5505 5507 5510 5514 5518 5520 5521 5524 5528